Location: Arrien
(42.8963°N, 1.0429°E)
Time: 09:07:26
(UTC+00:00)

ISS - Pass Details

Date: 23 February 2026
Orbit: 416 x 426 km, 51.6° (Epoch: 9 March)

Event Time Altitude Azimuth Distance (km) Brightness Sun altitude
Exits shadow 04:49:19 19° 1° (N) 1,079 -1.6 -21.3°
Drops below altitude 10° 04:51:30 10° 41° (NE) 1,495 -0.3 -20.9°
Sets 04:54:02 0° 61° (ENE) 2,358 1.2 -20.4°
